User: anonymous   Login
Location: Caltech
(34.1382°N, 118.1253°W)
Time: 19:53:25
(UTC-07:00)
Language:

Aureole 3 Rocket - Orbit

View from above orbital plane
View from above orbital plane
View from above satellite
View from above satellite

Ground track
Ground track

The orbit data is extracted from the following two-line orbital elements,

1 12849U 81094B   16204.82870937  .00000339  00000-0  30369-4 0  9993
2 12849  82.4913  59.4396 0903655 220.3733 132.6873 13.49871692697481
Epoch (UTC): 22 July 2016 19:53:20
Eccentricity: 0.0903655
inclination: 82.4913°
perigee height: 399 km
apogee height: 1746 km
right ascension of ascending node: 59.4396°
argument of perigee: 220.3733°
revolutions per day: 13.49871692
mean anomaly at epoch: 132.6873°
orbit number at epoch: 69748

The dashed part of the orbit path shows where the satellite is in the earth's shadow,  

DLR